Theta_e
314 319 322 323 322 320 318 318 319 320 322 324 326 327 325 324 323 323 324 317 309 314 319 316 315 315 315 316 312 309 310 308 308 308 308 310 310 311 312 311 311 311 311 311 310 310 310 310 310 310 310 310 310 310 310 311 312 313 313 315 317 319 320 321 323 322 319 322 325 324 325 325 324 324 323 323 326 325 324 324 322 322 321 320 320 319
316 321 323 324 320 317 317 317 316 319 319 319 321 322 322 323 322 320 320 317 311 313 320 318 315 315 313 314 311 308 308 308 308 308 309 310 311 311 312 312 312 311 311 310 310 310 309 309 310 310 310 310 310 310 310 311 312 314 315 316 316 317 319 321 324 324 322 320 321 322 323 324 325 324 323 324 324 323 322 321 321 320 319 319 319 318
318 320 321 318 314 313 317 316 315 316 317 317 319 318 321 322 320 320 319 316 312 314 321 321 316 315 314 313 310 308 308 310 310 311 312 313 312 311 312 312 312 311 311 310 310 310 309 309 309 309 310 310 310 310 311 311 313 315 316 316 315 318 319 319 322 324 322 321 322 323 323 322 323 322 322 322 321 321 320 319 319 318 318 318 318 317
321 324 319 312 312 316 318 316 315 315 315 318 319 318 321 321 319 323 321 315 313 315 318 319 316 315 314 314 313 310 309 310 311 311 312 312 312 313 313 313 312 312 312 311 310 310 309 309 309 309 310 310 310 310 311 312 312 313 315 316 316 318 319 319 321 322 321 323 323 323 322 322 321 321 321 321 320 319 318 318 317 317 317 318 318 317
322 321 314 311 315 318 318 318 317 318 319 320 319 318 319 320 319 322 322 318 319 320 317 317 318 320 319 317 316 314 311 311 311 311 311 311 312 312 312 312 312 312 312 311 311 310 310 309 309 310 310 310 310 310 311 312 311 311 314 316 317 318 321 320 320 321 322 323 322 322 322 321 321 321 320 319 318 317 317 317 316 317 317 316 316 314
318 314 312 316 317 317 318 319 320 321 321 322 322 319 317 319 320 320 320 318 322 326 319 316 323 330 331 324 319 318 316 314 312 309 310 312 312 312 312 312 312 311 311 311 311 310 310 310 309 309 310 310 310 310 311 312 311 311 314 317 318 319 321 320 320 321 322 321 320 321 322 321 320 319 318 318 317 317 316 316 315 314 312 311 309 306
316 312 316 323 320 318 319 319 320 320 319 322 324 321 317 317 318 319 320 319 324 328 318 315 323 328 327 323 322 324 323 322 318 311 309 312 312 312 313 313 311 310 310 310 310 310 310 310 310 310 310 310 310 310 311 312 312 312 315 317 319 320 322 321 321 320 320 321 320 320 320 320 319 318 317 316 316 316 315 313 312 309 305 303 302 301
316 315 317 322 322 321 320 320 321 317 319 325 323 321 320 318 317 319 319 321 324 324 319 320 323 322 321 321 322 325 326 326 324 319 314 312 312 313 313 313 312 311 311 310 310 310 310 310 310 310 310 310 310 310 312 313 312 314 316 317 318 321 320 320 321 320 319 320 320 320 319 319 318 317 317 315 315 313 311 309 306 303 301 299 299 299
315 319 319 318 320 321 321 325 322 316 321 325 318 317 320 319 319 320 320 321 321 320 323 325 321 320 324 325 321 319 322 324 324 324 320 314 314 314 313 314 313 312 312 311 311 310 310 310 310 310 310 310 309 310 312 313 313 315 318 317 318 320 319 318 319 319 319 318 318 318 318 317 316 316 316 315 313 310 307 305 302 300 299 298 298 298
313 317 316 316 320 320 323 326 320 318 320 317 313 317 320 321 322 324 324 324 323 321 323 326 323 320 324 327 324 320 322 325 324 323 319 314 315 315 315 315 314 313 312 310 310 310 310 310 310 309 309 309 309 310 311 313 314 316 319 318 318 319 319 318 318 317 317 317 317 316 316 316 315 315 315 313 310 306 304 302 300 298 298 298 298 298
312 312 311 315 317 316 319 318 312 315 315 312 318 325 325 325 326 326 326 323 324 324 322 325 325 321 323 325 325 324 325 327 325 323 323 317 314 315 316 316 315 314 312 310 309 309 309 309 309 309 309 309 310 310 311 313 314 316 318 319 318 318 317 317 316 315 316 317 316 316 316 316 315 314 313 310 307 304 301 300 299 298 298 298 298 298
313 314 314 314 313 312 317 317 311 311 311 315 329 330 325 328 327 326 326 324 325 325 322 323 321 319 322 323 325 324 322 324 323 324 330 325 315 314 316 315 315 314 312 310 309 308 308 308 308 308 308 309 310 310 310 313 315 314 315 317 317 317 317 316 315 314 316 316 315 315 315 315 315 313 311 308 305 303 301 300 299 299 299 298 298 298
316 318 316 313 312 313 319 322 316 314 313 319 329 326 323 327 324 324 326 324 325 322 317 318 318 319 321 322 325 324 321 322 318 316 321 319 313 314 315 314 314 313 311 310 309 308 308 308 308 308 308 309 309 309 310 313 316 314 314 314 315 315 315 315 315 314 315 315 314 314 313 314 314 311 308 305 303 302 301 300 300 300 299 299 298 297
320 319 315 315 315 314 318 321 320 319 318 319 323 324 324 325 326 329 327 323 323 321 315 314 317 321 323 323 323 322 320 319 314 312 315 314 313 314 313 312 313 312 311 310 309 309 308 308 308 308 308 309 309 309 309 311 314 314 313 314 315 314 313 314 315 314 314 314 314 313 312 312 311 308 304 303 303 302 301 300 300 300 299 298 298 297
321 319 318 318 317 316 317 317 321 322 318 316 320 323 323 324 328 333 330 325 325 324 318 314 318 326 327 325 321 314 311 313 314 315 316 314 314 315 312 311 311 311 311 310 309 309 309 308 308 308 308 308 308 308 309 311 313 314 314 314 315 313 313 314 314 313 313 313 313 312 311 310 308 305 303 302 301 301 300 300 299 299 298 298 297 297
317 321 323 317 314 316 316 315 318 322 319 316 319 322 322 324 325 323 323 322 322 324 321 317 321 325 324 324 318 311 310 313 313 313 314 315 315 313 311 310 310 311 311 310 310 309 308 308 308 308 308 308 308 308 309 311 313 314 313 314 314 312 313 315 314 313 313 313 312 310 309 307 305 303 302 301 300 300 299 299 299 298 297 297 297 296
318 322 320 313 313 314 314 314 314 317 320 318 318 321 320 318 319 319 319 315 315 320 322 320 322 323 322 322 318 315 318 318 315 311 310 313 314 311 311 311 309 310 310 310 311 309 308 308 307 307 307 308 309 308 309 311 312 312 311 313 313 311 313 315 314 313 313 312 310 309 307 304 302 302 301 300 300 299 298 298 298 297 297 297 297 296
320 323 318 313 317 313 309 313 312 310 315 320 321 320 316 315 319 323 323 321 321 323 323 321 321 321 322 322 319 317 318 319 319 316 311 309 310 310 311 311 309 309 310 310 311 309 308 308 307 307 307 308 308 308 308 310 311 311 310 312 313 311 312 314 313 313 312 311 309 307 304 302 301 301 300 299 299 299 298 297 297 297 297 297 296 296
319 321 319 314 317 314 309 314 316 311 311 317 320 317 318 323 324 322 323 325 325 324 325 323 320 319 320 321 322 321 322 323 321 318 316 312 309 311 313 311 308 309 309 310 310 309 308 308 307 307 307 307 308 308 308 309 310 310 310 313 314 312 311 312 312 313 312 310 307 304 302 301 300 300 299 299 299 298 298 297 297 297 297 296 296 295
319 320 322 313 312 314 313 316 320 317 312 313 315 314 318 324 323 322 322 323 325 326 327 326 322 322 321 322 323 321 324 328 323 319 320 315 311 313 313 310 309 309 309 310 310 309 308 307 307 307 307 307 308 308 308 308 309 310 310 313 314 312 311 311 312 312 311 308 305 302 301 300 299 299 298 298 298 298 297 297 297 297 296 296 296 295
317 318 321 315 311 314 318 318 318 319 316 315 317 317 317 318 319 322 321 321 325 327 328 327 324 323 325 324 324 323 322 323 322 323 320 313 312 314 312 309 310 310 309 310 310 309 308 307 307 307 306 307 308 308 308 308 309 310 311 313 313 311 310 310 311 311 310 307 303 301 300 299 298 298 298 297 297 297 297 296 296 296 296 296 295 295
317 319 322 319 315 316 320 318 314 316 317 317 318 318 317 317 319 321 320 320 323 323 326 327 323 324 326 322 322 326 324 317 314 318 316 311 312 313 311 311 311 309 310 310 310 310 309 307 306 306 306 306 307 308 308 309 309 310 311 313 312 310 309 310 311 311 310 306 303 301 300 299 298 297 297 297 296 296 296 296 296 296 295 295 295 295
318 322 323 321 318 317 318 313 308 311 315 315 317 319 318 317 318 321 321 321 322 321 322 323 322 323 323 320 321 322 319 312 308 309 310 311 314 314 312 312 311 309 309 309 309 310 308 307 307 306 306 306 306 307 308 309 309 309 311 312 311 309 308 310 311 311 310 306 302 301 299 298 297 297 297 296 296 295 295 295 295 295 295 295 295 295
316 320 320 320 318 316 316 313 309 310 313 314 317 319 318 316 317 321 322 322 322 322 321 320 322 322 317 315 313 307 306 307 307 308 309 311 314 315 314 313 311 309 309 308 308 309 307 307 306 306 306 305 305 307 308 309 310 309 309 310 310 309 308 309 310 311 310 307 303 300 299 297 297 297 296 296 295 295 295 295 295 294 294 294 294 295
316 318 320 321 321 319 319 318 314 313 314 317 319 318 317 317 317 319 321 321 322 323 321 321 322 321 317 314 309 307 311 311 307 308 309 311 314 315 314 313 311 309 308 308 308 307 307 307 306 306 306 305 305 305 307 309 310 309 309 308 308 308 308 308 309 310 310 307 303 301 299 297 296 297 296 296 295 294 294 294 294 294 294 294 294 294
318 320 319 319 321 322 322 321 320 317 314 316 319 317 316 317 317 317 319 320 321 321 321 322 322 320 319 316 312 315 321 319 312 309 310 312 314 315 314 314 313 310 308 307 307 308 308 307 306 306 306 305 305 305 306 308 309 310 309 307 307 307 307 308 309 310 310 307 304 301 299 297 297 296 296 295 295 294 294 294 294 293 293 293 293 294
320 322 318 318 321 321 321 322 321 319 316 316 317 317 316 316 316 317 319 319 321 321 321 320 320 322 321 318 317 319 322 324 319 311 310 313 314 314 314 315 314 312 309 307 307 307 308 307 307 306 306 305 305 305 305 307 308 310 309 307 308 307 307 308 309 309 309 306 303 301 300 298 297 296 296 295 294 294 294 293 293 293 293 293 293 293
320 321 318 319 320 318 321 323 320 318 318 318 317 317 316 316 316 317 318 319 321 322 322 320 320 321 320 318 321 322 322 325 321 311 311 315 315 315 315 315 314 313 310 308 307 307 307 308 307 306 306 305 305 305 304 305 307 309 309 308 309 308 307 307 308 309 307 305 303 301 300 298 297 296 295 294 294 293 293 293 293 293 293 293 293 293
319 320 319 320 319 317 320 322 319 318 318 317 317 317 316 316 316 317 317 318 320 321 321 321 322 322 320 318 320 320 318 319 318 314 314 315 315 315 315 314 315 314 311 310 309 308 307 308 307 306 306 305 305 304 304 304 306 308 309 309 309 309 308 307 308 308 306 304 302 301 299 298 296 296 295 294 293 293 293 292 292 292 292 292 292 292
316 319 319 319 319 319 319 320 319 319 318 317 317 317 316 316 315 316 316 317 318 319 319 320 321 321 319 318 319 318 316 315 315 314 313 314 314 315 314 314 315 314 313 314 313 310 307 307 307 306 305 305 304 304 304 304 305 307 308 309 309 309 308 308 309 308 306 304 301 300 299 297 296 295 294 293 293 293 292 292 292 292 292 292 292 292
314 318 319 318 319 320 318 318 319 319 319 318 318 317 316 315 315 315 316 316 317 318 318 318 319 319 317 316 316 316 314 314 314 313 313 313 314 314 314 314 315 315 315 316 314 310 308 307 307 305 305 305 304 304 304 304 304 306 307 308 308 309 308 309 309 308 306 304 301 300 298 297 296 295 294 293 293 292 292 292 292 292 292 291 291 291
314 316 317 317 320 320 319 319 319 317 317 317 318 318 316 315 314 314 315 316 316 317 317 317 318 318 317 316 315 314 312 312 311 312 313 313 313 313 313 314 315 316 316 316 315 312 309 308 308 306 306 306 305 304 304 303 303 304 306 307 308 308 308 309 309 308 306 304 302 300 299 298 296 295 294 293 292 292 292 291 291 291 291 291 291 291
314 315 316 317 320 320 319 319 318 316 317 318 318 318 317 315 314 314 314 315 315 316 317 317 317 317 317 317 316 316 315 312 310 311 313 314 313 313 313 314 315 315 316 316 315 313 311 310 309 308 308 307 306 305 303 302 302 302 304 306 306 307 308 308 309 308 305 304 302 300 299 298 297 295 294 293 292 292 291 291 291 291 291 291 290 290
314 315 315 315 319 320 317 317 317 317 319 321 320 320 319 316 315 315 315 314 314 314 315 316 316 316 316 317 316 316 316 314 312 313 314 313 313 313 313 314 315 315 315 315 314 312 311 310 309 308 307 306 306 304 302 302 302 302 302 303 304 305 306 307 307 307 305 303 302 300 299 298 296 295 294 292 292 291 291 291 291 290 290 290 290 290
313 314 314 314 316 318 315 315 318 320 320 320 321 319 317 316 315 315 315 314 314 314 314 314 316 316 315 315 314 314 313 313 313 313 313 313 312 313 313 314 315 315 314 314 314 313 311 310 309 308 306 306 305 303 302 301 301 301 301 301 302 303 304 305 305 305 304 303 302 300 299 297 296 295 294 292 292 291 291 291 291 290 290 290 290 289
313 313 313 314 315 315 315 316 320 320 318 319 319 314 312 316 317 315 316 316 314 314 314 314 314 314 314 313 312 313 312 311 311 311 311 312 313 313 313 314 314 314 313 313 313 312 310 309 308 307 306 305 304 303 302 302 301 301 301 301 301 301 302 303 303 302 302 301 301 300 299 297 296 295 294 293 292 291 291 291 291 290 290 290 289 289
314 314 314 315 315 315 316 317 318 319 317 319 319 313 311 316 318 317 317 317 315 314 314 313 314 314 312 311 312 312 311 310 310 311 311 312 313 313 313 313 313 312 311 311 310 309 308 307 306 306 305 305 304 303 302 302 301 301 300 300 300 300 301 301 301 301 301 301 300 300 299 297 296 295 295 293 292 291 291 291 291 290 290 290 289 289
313 314 314 316 316 315 317 318 317 319 319 318 319 316 311 312 314 316 317 318 317 314 312 312 314 313 312 312 311 309 309 311 313 312 311 311 312 312 313 312 311 310 309 309 308 308 307 306 306 305 305 304 304 303 302 302 301 301 300 300 300 300 300 300 300 300 300 300 300 300 299 298 296 295 295 294 293 292 292 291 290 290 290 289 289 290
311 312 313 315 316 315 317 318 318 319 319 319 319 314 308 308 310 312 315 317 317 312 309 311 314 313 312 311 309 308 310 313 314 312 310 311 312 312 311 310 309 308 309 309 308 308 308 307 306 306 305 305 304 303 303 302 301 301 300 300 300 299 299 299 300 300 300 300 299 299 299 298 297 296 296 295 294 293 292 291 290 290 290 289 290 291
310 311 312 314 316 316 316 317 317 317 318 320 317 308 305 308 311 313 317 318 314 309 308 310 312 312 311 309 308 309 312 313 313 311 310 311 311 310 309 309 309 310 310 310 310 310 309 308 308 307 307 307 306 305 304 303 302 301 301 300 300 300 301 302 301 300 299 299 299 299 299 298 298 297 296 296 294 292 291 290 290 290 290 290 290 291
309 311 312 313 315 315 315 317 317 316 318 320 313 304 304 310 312 315 319 317 310 306 307 310 310 310 310 308 307 310 311 311 311 311 310 310 310 309 309 309 310 310 310 310 310 309 309 309 309 308 308 307 307 306 305 305 304 304 304 303 303 304 305 304 302 299 299 298 298 298 298 298 297 297 296 295 293 292 291 291 291 290 290 290 290 290
310 310 311 312 314 314 315 316 316 316 317 314 307 302 305 312 316 316 314 311 309 308 308 309 310 310 310 308 308 309 310 309 309 310 310 310 310 310 310 310 310 310 310 310 309 309 309 309 308 308 308 307 307 307 306 306 306 306 306 306 306 306 305 303 301 300 299 298 298 297 297 296 296 295 295 294 293 292 292 291 291 290 290 289 289 289
311 311 311 312 313 314 314 314 316 317 313 307 305 306 307 313 317 314 309 307 308 309 309 309 310 310 310 309 308 308 308 308 309 310 310 310 309 309 310 309 309 309 309 309 309 309 309 308 308 308 308 307 307 307 307 306 306 306 306 306 305 304 302 301 300 299 298 297 296 296 295 295 295 294 294 293 293 292 292 291 290 289 289 289 288 288
310 311 311 312 312 313 313 314 315 315 309 306 309 311 309 310 312 310 308 307 307 307 308 309 309 309 310 309 308 307 307 309 310 310 309 308 308 308 308 308 308 308 308 307 308 307 307 307 307 307 306 306 306 305 305 305 304 304 304 303 302 300 299 299 298 297 296 296 295 295 294 294 294 293 293 293 292 292 291 291 290 289 289 288 288 288
311 309 310 313 313 311 312 313 311 308 305 306 309 310 309 309 309 308 308 308 307 307 307 307 308 309 309 308 307 307 308 308 308 308 307 307 307 307 307 307 306 306 306 306 305 305 305 304 304 304 303 303 303 302 302 302 301 301 301 300 299 298 297 297 296 295 295 295 294 294 294 293 293 293 292 292 292 291 291 291 290 290 289 289 288 288
308 305 307 312 313 310 310 309 305 302 303 305 306 306 307 309 308 307 307 307 307 307 306 305 306 308 308 308 307 307 308 307 307 306 306 306 306 306 305 305 305 304 304 304 303 303 302 301 301 300 300 300 300 299 299 299 299 298 298 297 297 297 296 296 295 295 295 294 294 294 293 293 293 292 292 292 291 291 291 290 290 290 290 289 289 289
306 303 305 310 312 311 312 310 306 304 303 303 304 304 305 307 308 306 306 306 306 306 305 305 305 306 307 308 308 308 307 306 306 305 305 304 305 304 303 303 302 302 302 302 301 301 300 300 299 298 297 297 297 297 297 297 297 296 297 296 296 296 296 296 296 295 295 295 295 294 294 294 293 293 292 292 292 291 291 291 290 290 290 290 289 289
307 304 306 310 311 310 311 307 301 300 300 301 302 303 304 305 306 305 305 305 305 305 305 304 304 305 306 307 307 307 307 306 305 305 304 304 304 303 302 301 300 300 300 300 299 299 298 298 297 296 296 296 295 295 295 295 295 295 295 295 295 295 295 295 295 295 295 295 295 295 294 294 294 293 293 293 292 292 292 291 291 291 291 291 290 290
306 305 308 309 308 307 308 304 299 300 302 301 301 302 303 304 305 304 304 305 304 304 304 304 304 304 304 304 304 305 305 305 304 304 303 302 302 301 300 299 299 298 298 298 298 298 297 296 296 295 294 294 294 294 294 293 293 293 293 293 293 293 292 292 292 293 293 293 292 292 292 292 292 292 292 292 291 291 291 291 291 291 291 291 291 290
305 308 309 308 306 307 308 305 302 305 308 305 302 303 303 303 303 303 303 304 303 303 304 304 303 303 303 303 302 302 303 303 303 302 300 299 299 298 298 297 297 297 297 297 297 296 295 295 294 294 293 293 293 293 292 292 292 292 292 291 291 291 291 291 291 291 291 291 291 291 290 290 290 290 290 290 290 290 290 290 290 290 290 290 290 290
304 308 307 307 307 307 306 304 302 305 308 306 305 304 303 302 303 303 303 303 303 303 303 304 303 303 302 302 301 301 301 301 300 299 298 297 297 297 296 296 296 296 296 296 296 295 294 294 293 293 293 293 293 292 292 292 292 292 292 291 291 291 291 291 290 290 290 290 290 290 290 290 290 290 290 290 290 290 290 290 290 290 289 289 289 289
Wind_Speed
4 3 3 4 8 9 9 10 8 5 6 5 5 4 4 5 5 5 5 6 3 4 6 8 9 11 12 12 14 14 16 19 22 22 25 28 30 32 34 35 36 36 34 32 31 30 27 25 24 23 21 20 18 17 17 16 15 15 16 17 19 21 19 20 25 23 20 22 24 23 20 21 24 21 18 18 18 17 15 14 14 13 12 11 11 11
4 4 6 11 10 8 7 8 5 4 5 3 4 3 3 4 6 7 5 5 1 4 6 6 7 11 12 12 15 11 10 17 24 25 28 33 33 36 36 37 38 36 35 33 32 32 29 27 26 24 23 21 20 19 18 16 16 17 18 18 18 20 20 21 24 22 21 21 21 22 20 20 20 18 17 17 16 15 14 14 13 12 11 10 9 10
2 3 11 12 5 5 4 5 6 4 3 1 2 2 3 3 4 7 5 3 1 4 5 4 4 9 12 12 14 14 14 21 30 31 34 36 36 38 39 39 38 37 37 36 35 34 31 29 27 26 25 23 21 19 17 17 18 19 20 20 19 21 22 23 24 23 21 21 22 22 22 21 19 16 17 17 15 14 13 13 12 11 11 10 10 11
3 6 12 10 7 7 3 4 6 3 2 3 3 3 4 3 2 4 5 3 0 2 3 4 5 7 10 9 11 20 24 26 30 32 35 37 37 39 39 38 39 39 40 39 37 36 33 31 29 28 27 24 22 20 18 19 20 21 22 22 22 24 23 24 25 23 22 23 22 21 20 21 20 18 17 16 14 13 13 13 13 13 13 12 12 12
6 6 5 8 9 8 5 4 7 5 3 5 6 6 6 5 6 7 4 4 3 3 3 3 6 6 8 10 11 13 14 20 27 28 31 37 38 39 37 37 40 40 41 40 39 38 36 34 32 30 28 26 24 22 21 20 20 21 23 24 24 25 25 23 22 23 24 23 20 21 23 22 21 19 18 16 14 15 15 15 16 15 14 14 13 13
8 5 4 8 6 7 7 4 6 7 4 5 6 10 10 9 8 7 3 5 4 5 3 3 4 6 5 8 10 6 2 10 18 19 27 35 35 36 38 40 40 38 38 39 38 38 37 36 34 31 29 28 26 24 22 20 19 20 22 24 24 26 27 23 20 21 23 21 19 21 23 23 21 19 18 17 17 17 18 17 17 17 16 16 16 17
5 5 6 7 6 7 6 5 6 8 5 4 5 9 12 9 7 6 3 1 1 4 4 2 2 7 6 7 9 5 5 10 12 12 21 31 32 35 40 41 39 37 37 38 37 38 38 37 36 33 31 30 27 25 22 20 20 20 22 23 24 26 27 24 23 23 22 23 24 23 22 21 20 19 19 19 19 19 19 19 19 19 20 20 20 20
3 5 4 6 6 6 6 5 6 8 8 4 5 6 9 8 8 7 5 4 4 3 4 3 2 5 8 8 6 5 8 10 11 11 16 27 32 34 37 38 37 37 38 38 39 39 39 39 37 35 32 30 28 25 23 22 21 22 24 24 23 25 25 22 24 25 23 24 24 22 21 20 18 18 20 22 22 21 21 21 22 23 24 23 21 19
4 7 8 7 5 4 7 5 7 11 6 5 3 5 6 6 5 4 5 4 2 3 5 4 1 4 8 6 3 0 6 8 11 13 15 24 30 30 32 34 34 36 37 38 40 40 39 39 37 34 31 29 28 25 24 24 22 23 27 26 25 27 27 24 24 23 21 21 20 19 19 19 18 20 22 24 24 23 24 25 26 26 25 23 21 19
2 5 8 9 6 6 6 3 8 12 5 4 6 7 5 5 5 4 4 3 2 2 6 5 3 4 8 4 2 2 3 7 10 12 14 20 23 23 26 30 31 34 36 36 37 37 38 38 36 33 31 30 28 26 26 25 24 25 29 29 28 29 29 26 24 22 22 23 22 22 21 21 21 24 26 27 27 27 28 28 28 26 25 23 21 19
1 1 3 5 4 5 5 2 3 8 7 8 7 6 6 6 5 4 3 4 1 5 7 8 9 6 7 3 4 3 4 7 9 8 11 15 16 16 20 23 26 31 34 35 35 35 35 35 35 33 32 31 30 28 27 28 28 27 29 29 29 29 27 25 23 23 25 25 23 22 22 21 23 27 29 29 31 31 31 29 28 26 24 22 20 18
3 0 1 3 4 5 7 5 3 3 7 7 4 5 4 4 4 4 4 3 1 6 5 6 7 8 9 6 3 6 6 5 7 7 9 11 11 11 13 16 20 25 30 32 33 34 35 36 37 36 34 33 33 32 30 31 32 31 30 30 29 27 26 25 24 25 26 25 23 22 22 21 24 28 30 31 32 32 31 29 27 26 23 21 19 17
2 5 2 0 4 7 7 4 4 3 2 4 4 6 4 3 3 2 3 1 4 7 3 1 2 4 10 8 6 8 9 8 10 12 14 13 14 14 12 13 16 21 26 30 32 34 36 38 39 38 37 36 35 34 33 34 35 34 32 33 31 29 28 26 26 26 26 25 24 24 23 23 25 28 30 32 31 31 29 27 25 24 22 21 19 18
3 5 1 1 3 9 10 6 3 1 4 6 5 6 5 2 1 3 3 2 5 6 4 1 1 4 6 4 9 13 13 15 15 17 20 20 20 19 16 14 15 19 23 27 31 34 36 39 40 40 39 38 37 35 35 37 37 36 34 35 33 31 30 29 28 28 27 27 26 25 25 25 27 30 32 31 29 28 27 25 22 21 20 20 19 18
5 6 5 7 4 11 13 9 7 6 5 7 5 6 6 5 5 4 3 4 5 4 4 2 2 4 2 3 8 9 10 15 19 22 22 23 24 22 20 17 16 19 23 25 29 32 36 39 40 40 40 39 37 36 36 37 38 38 36 35 33 31 31 32 31 30 29 28 27 26 27 27 29 32 32 30 28 26 25 24 22 21 20 19 18 17
5 7 7 4 3 12 12 7 7 8 2 3 3 4 4 6 5 2 3 5 2 2 3 2 4 5 3 6 9 7 8 11 19 23 22 27 30 25 23 21 19 21 23 25 28 31 35 38 40 40 40 39 38 37 37 38 39 39 37 35 33 31 32 33 32 31 30 29 28 28 28 30 32 33 31 30 28 26 25 24 23 22 21 20 18 17
3 5 5 1 1 5 6 5 5 4 3 2 3 4 4 4 5 2 3 1 3 3 4 3 6 5 3 7 8 6 8 9 11 14 18 27 28 23 25 26 22 22 22 24 27 30 34 38 40 41 40 40 39 38 38 40 40 39 38 36 34 33 33 32 32 32 31 30 30 30 30 33 35 34 31 30 29 27 26 25 24 23 22 20 18 17
5 4 5 1 2 3 0 5 4 3 4 5 4 6 3 2 2 2 2 3 3 4 5 2 6 6 2 6 4 2 8 11 9 10 14 20 20 21 28 27 23 22 20 22 27 30 34 37 39 41 40 40 39 38 39 40 39 38 37 38 37 36 35 33 33 33 32 31 31 32 33 35 35 33 31 30 29 28 28 27 26 24 22 21 20 18
4 2 5 1 3 3 3 5 2 5 3 4 4 6 5 2 1 2 2 2 1 3 5 3 5 5 5 6 2 3 10 12 12 11 11 13 16 24 29 25 21 20 20 24 29 32 34 37 39 40 40 40 39 38 38 39 39 38 38 39 38 36 34 33 33 32 32 32 32 33 35 37 36 34 32 31 30 29 29 28 27 25 23 22 21 19
3 3 4 1 1 1 3 3 5 1 3 4 3 3 2 2 4 3 3 3 3 2 4 3 4 5 6 6 6 10 12 11 11 10 8 12 22 28 27 22 20 21 22 25 28 32 34 36 38 39 39 39 39 39 39 39 39 39 39 39 38 36 35 34 34 33 33 33 34 35 37 38 37 35 33 32 31 30 30 29 27 26 25 24 22 20
3 4 4 2 2 1 2 4 7 8 6 3 4 5 3 1 2 1 1 2 4 3 2 3 6 8 5 4 8 11 10 10 11 9 8 16 24 24 20 20 21 21 23 25 27 31 33 35 37 38 38 38 39 39 39 39 40 40 40 40 39 38 37 37 36 34 34 34 36 37 39 39 38 36 34 33 32 32 31 30 28 27 26 25 23 21
4 4 4 2 1 3 5 5 5 8 8 7 7 8 8 6 4 2 3 2 3 3 4 3 7 10 5 4 6 7 6 7 10 10 9 16 21 18 16 17 19 20 22 24 25 28 32 34 36 37 38 38 40 41 41 41 41 42 42 41 40 40 40 39 38 36 35 35 38 39 40 39 39 37 36 35 34 33 32 31 29 28 27 26 24 22
4 3 3 3 4 5 6 4 3 5 4 3 4 5 6 7 6 6 6 4 3 3 3 4 4 10 4 3 4 4 3 4 7 11 12 17 18 16 17 17 17 18 19 21 24 27 30 33 35 36 38 39 40 42 43 43 43 43 44 43 43 43 42 41 39 37 36 37 39 41 41 41 40 39 37 37 36 35 33 32 30 29 28 27 25 23
4 3 4 2 2 2 4 4 2 1 2 1 2 3 6 8 8 6 5 4 4 5 5 3 5 9 4 0 3 6 4 4 7 10 13 17 16 14 15 16 16 17 17 19 23 26 29 32 34 36 38 40 42 43 44 44 44 44 45 45 46 45 44 42 40 38 37 38 40 42 43 42 41 40 39 38 37 36 34 33 32 31 30 28 26 24
6 3 4 3 1 3 3 3 2 2 2 3 4 5 7 10 9 3 0 2 3 9 10 6 9 9 3 3 3 4 4 4 8 10 11 14 13 11 12 14 15 16 17 19 22 26 30 32 34 37 38 41 42 43 45 46 46 46 46 47 48 47 46 44 42 40 39 40 42 44 45 44 43 42 41 40 39 37 35 34 33 32 31 29 27 25
8 3 6 7 7 8 6 5 5 4 3 2 4 7 9 12 13 7 3 4 7 9 9 8 13 9 2 3 4 4 4 5 7 7 10 12 11 10 11 12 16 17 18 20 22 25 29 32 35 37 38 40 42 43 45 47 47 48 47 47 48 48 47 45 43 42 41 41 43 46 47 46 45 44 42 41 39 38 36 35 34 34 32 31 28 26
4 3 10 12 12 13 10 5 4 8 7 7 9 12 12 13 15 11 6 8 8 3 6 14 17 13 9 5 4 5 4 5 6 7 10 12 10 12 14 15 18 19 19 20 22 25 28 31 35 37 38 40 42 43 45 47 48 49 48 48 48 48 48 46 44 43 42 43 44 47 48 48 46 44 43 42 40 39 37 36 36 35 33 31 29 27
3 4 12 14 16 16 11 5 7 10 12 13 14 14 14 14 14 13 13 13 7 4 10 17 11 13 21 13 8 8 5 3 7 12 17 18 17 19 20 19 19 20 20 21 23 27 28 30 34 37 38 40 42 44 45 46 48 49 49 49 48 48 48 46 45 44 43 43 45 47 48 48 46 45 43 42 41 40 38 37 37 35 33 32 30 28
3 6 10 11 15 18 12 5 7 9 9 11 14 15 16 16 16 18 21 17 10 9 18 16 9 13 24 15 8 8 7 10 17 20 22 23 23 23 22 20 21 22 23 24 27 29 29 30 33 36 39 40 42 44 46 47 49 50 50 50 50 50 49 46 45 44 44 44 45 47 48 47 46 45 44 43 42 41 40 39 38 36 34 32 31 29
3 5 6 8 11 17 14 6 7 9 6 6 11 14 16 19 21 23 23 20 15 14 20 16 6 14 20 11 7 9 12 19 23 20 18 19 22 22 22 22 24 24 25 26 30 32 30 30 33 35 38 40 42 45 47 48 50 51 52 52 52 51 49 47 46 46 45 45 45 47 48 48 47 46 45 44 42 42 40 39 38 37 35 34 32 30
3 3 2 6 6 13 12 6 7 9 8 7 9 10 14 19 20 20 18 16 14 14 19 17 13 18 14 4 7 13 15 17 16 16 19 22 23 23 23 24 24 25 26 30 33 33 30 30 33 36 38 40 42 44 47 49 50 51 53 53 53 52 50 48 47 47 46 45 45 47 49 48 47 46 45 44 43 42 41 40 39 38 36 35 34 32
3 2 2 4 6 11 9 8 8 7 5 6 9 12 18 17 14 14 13 13 14 15 18 15 14 18 11 2 5 11 10 11 13 19 25 28 27 25 24 25 26 27 30 33 34 32 30 31 34 35 37 38 39 43 46 48 49 51 52 53 52 52 51 49 48 48 47 46 45 47 48 47 47 46 45 45 44 43 42 40 40 38 37 37 35 34
5 4 2 4 7 9 6 9 9 5 3 7 12 17 20 14 9 10 12 14 16 15 13 13 15 19 14 6 8 8 6 10 16 23 29 30 29 27 27 28 29 30 32 33 34 33 30 29 30 31 33 34 37 41 44 46 48 49 50 51 51 51 50 50 49 48 47 46 45 46 47 47 47 46 46 46 45 43 42 41 40 39 38 37 36 34
5 6 5 4 4 6 4 7 6 5 8 9 8 10 15 15 15 15 15 17 16 14 13 14 15 17 15 10 11 12 12 16 23 29 31 29 27 27 29 30 30 31 33 32 32 31 27 25 26 28 30 31 34 38 40 43 45 46 47 48 49 50 50 49 48 48 48 47 46 46 47 48 48 46 45 45 44 43 42 41 41 40 39 38 36 36
5 6 4 3 2 2 4 6 4 7 9 6 2 1 7 15 20 20 18 18 17 16 17 18 19 20 19 17 19 21 25 27 28 30 29 26 25 27 28 30 30 30 31 30 30 31 28 25 25 26 27 28 30 34 37 39 41 43 45 46 47 48 48 48 48 48 48 48 47 47 48 48 47 45 44 44 44 44 43 42 41 41 40 38 38 36
8 6 3 2 3 2 3 5 6 4 3 5 4 2 0 4 9 12 14 17 18 18 18 20 23 23 20 22 28 29 29 27 25 27 27 24 25 28 29 30 29 28 28 26 26 26 22 20 20 19 19 22 25 30 32 34 36 39 42 43 44 45 45 46 47 47 48 48 48 47 47 47 46 45 44 44 45 45 44 43 43 42 40 39 39 37
10 8 4 3 4 3 3 6 4 4 6 8 7 4 5 7 9 11 9 12 16 19 18 18 20 21 19 26 34 29 20 15 16 24 30 28 28 30 28 27 26 25 23 19 16 15 11 11 14 14 14 16 19 23 26 27 31 34 37 40 41 42 43 44 45 46 46 46 46 45 45 46 45 45 44 45 46 47 46 45 44 42 41 41 40 40
9 8 7 6 5 4 5 5 3 2 8 11 7 6 10 12 13 12 8 9 11 15 20 18 16 19 19 23 26 16 6 6 9 18 25 24 25 27 26 24 21 17 14 11 9 9 8 8 10 10 11 12 14 17 20 22 25 29 32 35 37 38 40 41 42 43 44 44 44 44 44 45 45 45 45 46 48 48 46 45 44 43 42 41 42 42
6 4 7 7 4 5 6 6 6 6 8 8 5 4 9 13 12 10 4 9 7 10 21 21 16 20 21 19 15 7 3 5 10 14 15 12 15 21 21 18 13 10 11 11 10 8 7 6 7 8 9 10 11 13 16 17 20 24 27 29 31 34 36 37 37 38 40 41 41 42 43 44 45 46 46 47 48 48 46 45 44 43 42 43 44 44
5 4 6 8 7 7 8 7 5 4 6 6 4 4 10 16 16 11 3 9 5 10 22 24 20 22 22 16 10 8 6 10 11 10 10 7 10 15 14 12 12 11 10 10 9 9 8 7 7 7 6 7 9 10 12 14 17 19 21 22 25 28 28 28 30 32 35 37 38 39 41 42 44 45 46 47 47 46 45 44 44 44 44 45 46 45
3 3 5 8 9 9 10 8 4 3 5 5 5 11 16 16 11 6 7 7 7 12 18 23 26 25 20 14 13 12 16 21 16 10 7 9 13 15 15 14 13 12 10 10 9 9 8 8 8 7 6 7 9 10 12 13 14 15 16 19 21 22 21 23 27 29 31 33 35 36 38 39 41 43 43 44 44 43 44 45 46 47 47 48 47 45
4 3 4 7 8 8 9 7 4 5 5 6 10 14 16 10 4 8 6 5 12 15 14 17 22 22 17 17 19 20 20 18 14 10 11 14 14 14 15 14 14 12 11 12 11 10 10 10 9 10 10 10 10 11 12 14 15 16 17 20 20 21 22 24 26 26 27 29 31 32 34 36 38 39 40 41 42 43 45 46 47 48 49 48 48 46
6 4 4 5 5 5 5 6 7 7 4 16 18 8 5 5 4 7 8 7 10 15 13 14 15 14 14 16 18 17 14 11 12 14 15 13 12 12 14 14 13 12 12 11 12 12 12 12 11 12 13 13 13 14 15 16 17 18 19 20 19 20 22 22 22 22 23 25 27 28 30 32 33 35 36 37 38 40 42 43 45 47 48 48 47 46
5 5 4 4 5 5 5 7 6 2 8 26 23 7 13 16 7 5 11 11 11 13 13 12 11 11 12 14 14 14 12 11 14 14 13 13 13 12 13 13 12 12 11 11 11 12 12 12 12 13 13 13 14 15 15 16 16 17 17 16 15 16 17 17 17 19 20 22 24 25 26 28 29 30 31 31 32 34 36 38 40 43 45 46 46 46
7 7 4 4 6 6 5 6 4 2 14 31 24 9 18 25 13 7 13 15 15 16 13 10 10 9 10 13 14 15 13 12 14 14 12 12 12 11 11 11 11 10 10 10 10 11 11 10 10 11 12 13 13 13 13 13 12 11 10 9 10 11 12 13 15 16 17 19 20 20 21 22 23 24 25 26 27 29 30 32 35 37 39 41 43 44
4 3 2 2 3 4 3 4 4 2 12 27 23 9 12 22 18 11 13 13 14 15 13 11 9 9 12 15 16 15 13 13 13 13 11 11 10 10 10 10 10 10 10 10 10 10 10 10 10 10 10 11 11 11 10 9 8 6 6 6 7 8 9 10 11 12 14 15 15 15 16 18 19 20 21 22 23 25 26 28 29 31 33 35 38 40
2 4 3 1 3 6 5 4 6 5 10 20 22 13 11 19 21 16 13 12 13 13 13 11 9 8 12 16 16 14 13 13 13 12 11 11 11 11 10 10 10 10 9 9 9 9 9 10 10 10 10 9 9 9 8 8 8 8 9 8 8 8 9 10 10 11 12 12 13 14 14 15 16 17 18 20 21 22 24 26 27 29 31 32 34 35
4 7 5 3 4 5 4 4 3 3 7 14 18 15 13 18 21 18 14 13 13 14 14 12 11 11 12 13 12 12 13 13 13 12 13 13 12 12 11 10 10 10 10 10 10 9 9 10 10 11 10 9 9 10 9 10 10 10 10 9 9 9 10 10 10 11 11 12 12 13 14 14 15 16 16 18 19 20 22 23 25 26 28 28 29 31
5 6 5 4 3 2 5 5 1 2 4 9 17 18 16 18 21 19 15 15 15 16 16 15 13 12 12 11 11 11 12 13 13 12 13 15 14 13 12 11 11 11 11 11 11 11 11 11 11 12 12 12 11 10 10 9 9 8 8 7 7 8 8 8 10 10 10 11 11 12 12 12 13 13 14 15 16 17 19 19 21 22 23 23 25 27
6 5 4 4 3 5 7 6 8 5 2 9 21 25 19 17 19 19 16 16 18 17 17 17 16 14 12 11 10 10 11 13 15 15 14 14 13 12 13 13 12 12 12 13 14 14 13 14 14 13 12 12 11 9 8 8 7 6 6 6 6 7 7 8 9 9 10 10 11 11 11 12 12 13 13 14 14 15 16 17 18 19 20 21 22 24
8 8 8 7 6 7 8 10 16 13 6 9 23 30 25 18 18 19 17 17 17 16 15 16 16 14 13 11 9 8 10 12 15 16 15 13 12 12 13 13 13 13 15 16 16 16 17 16 15 13 12 11 10 9 8 7 6 5 5 5 5 6 7 7 8 9 10 11 12 12 13 13 14 14 15 15 15 16 17 18 19 20 21 21 22 23
Wind_Direction
139 130 147 200 217 211 202 195 196 166 136 129 130 149 198 214 262 250 252 282 189 168 242 224 225 246 252 261 261 242 218 222 234 239 240 240 239 240 239 240 240 240 240 236 233 233 233 233 234 234 234 233 233 233 232 232 226 221 216 212 205 199 203 208 204 207 211 208 206 205 210 219 215 212 213 212 206 201 202 201 198 196 191 186 183 180
129 151 215 223 219 203 194 194 176 127 126 107 124 187 248 216 252 253 242 293 173 171 261 241 226 253 251 254 264 247 205 223 232 232 239 241 240 241 241 242 241 240 240 235 233 233 231 231 231 230 231 231 232 232 232 227 217 212 208 207 207 201 201 202 202 203 204 210 216 213 211 214 210 202 200 203 200 195 194 190 184 182 177 170 168 164
147 213 236 229 185 115 124 165 167 165 160 140 132 175 264 241 270 278 271 305 155 180 264 272 241 257 258 256 260 245 222 236 239 235 242 244 241 242 241 242 241 239 238 234 232 231 229 229 228 228 229 229 229 229 230 221 210 208 206 204 200 198 198 198 203 207 204 209 213 209 206 211 215 207 199 199 195 188 186 181 174 171 166 158 158 158
185 243 242 215 139 121 122 126 136 139 191 197 173 175 244 241 256 277 288 320 258 211 268 293 284 272 268 264 259 249 240 244 249 246 248 248 244 246 248 247 244 240 238 234 230 229 226 226 226 225 227 226 224 223 221 216 212 208 205 202 197 196 199 199 206 211 208 205 205 205 206 209 211 203 193 192 189 183 179 173 165 162 159 157 163 162
214 252 229 164 153 166 158 121 135 152 232 236 205 199 224 225 215 232 285 331 332 332 0 339 302 274 254 254 254 256 244 245 251 249 249 249 247 248 250 249 247 243 241 236 231 228 225 225 226 225 225 225 224 223 220 216 216 209 203 201 198 197 201 202 207 210 207 203 202 203 198 193 193 189 187 191 187 176 170 168 163 161 160 161 165 160
243 246 135 132 162 175 157 159 173 173 207 269 228 207 216 219 223 240 309 1 352 320 336 17 299 274 258 253 256 274 276 250 250 244 245 249 248 245 245 245 244 243 241 238 235 232 228 226 226 224 223 225 225 224 219 214 214 208 201 200 199 201 203 203 203 204 205 207 208 206 197 191 191 189 185 190 187 175 170 169 165 161 159 158 157 151
241 205 139 127 153 164 171 209 211 178 168 266 244 206 212 211 218 236 209 117 247 260 289 66 221 271 286 262 252 238 230 252 253 247 250 252 249 244 244 245 243 240 238 236 234 232 229 226 225 223 223 224 225 222 214 208 206 202 197 198 201 202 202 202 200 199 204 207 204 203 205 205 205 200 190 184 182 176 171 168 164 158 153 151 150 147
168 177 151 123 134 149 177 219 218 171 152 237 250 183 190 198 209 218 184 191 234 258 313 23 130 271 279 263 258 201 208 254 265 260 259 254 249 245 244 245 243 242 240 236 233 229 227 226 226 226 224 224 225 218 209 204 201 197 195 198 203 200 198 204 201 195 199 202 197 195 201 204 205 208 198 183 177 174 171 166 159 155 151 149 149 148
139 177 189 161 147 172 197 213 182 156 161 246 221 136 155 171 180 168 144 191 297 13 295 302 98 272 269 257 325 71 204 246 260 254 255 252 251 248 247 247 244 244 242 240 237 232 228 225 225 225 224 223 222 214 207 204 199 196 194 198 205 200 195 201 200 194 197 201 206 209 211 210 207 205 197 184 177 172 168 164 157 155 153 151 152 151
116 191 192 165 164 201 206 216 168 163 188 201 130 93 78 73 80 86 109 138 43 342 245 235 160 255 271 230 122 44 210 230 245 249 253 256 256 254 253 252 247 243 241 239 237 233 230 226 223 223 221 219 218 211 205 202 198 199 198 199 204 197 190 195 200 205 210 209 213 218 222 223 211 198 190 182 175 169 167 164 159 157 157 156 157 155
341 125 169 167 183 183 144 81 158 168 155 132 108 66 52 34 40 52 51 85 35 271 233 212 189 203 271 260 168 192 207 210 225 245 261 265 264 258 257 255 248 243 240 236 232 229 226 223 220 219 218 217 214 207 202 200 198 199 199 197 196 193 192 196 204 212 215 210 212 217 223 225 210 196 189 180 173 169 167 166 162 161 162 160 160 158
330 109 192 197 175 135 106 69 30 113 132 120 91 80 72 346 8 23 354 52 243 258 237 221 195 188 239 259 217 237 251 225 216 235 257 268 273 267 261 258 251 244 239 234 229 224 220 217 214 214 215 215 211 206 201 198 198 199 201 200 199 202 201 200 204 210 211 209 213 219 221 219 208 198 190 180 173 170 169 169 166 165 166 164 164 163
264 235 261 291 178 160 124 81 34 34 104 114 97 113 117 321 355 340 303 96 234 259 284 316 140 205 243 247 234 250 264 247 225 230 245 261 274 278 275 267 256 244 237 232 227 223 218 215 213 212 213 213 210 207 202 198 199 201 204 208 209 211 210 206 206 209 209 211 215 216 212 210 206 198 188 178 174 171 172 174 172 171 171 170 169 167
264 293 285 118 229 193 167 155 171 193 178 167 148 147 158 158 187 259 268 277 265 271 307 6 143 250 276 262 231 232 240 242 239 244 252 262 269 274 277 272 258 244 236 232 227 223 219 216 214 213 213 214 211 208 203 201 203 204 206 210 209 209 211 210 209 208 210 212 212 211 208 206 202 193 184 179 177 175 175 177 177 176 176 175 173 169
217 287 205 179 200 186 184 191 173 138 160 187 164 147 167 167 173 211 215 229 259 286 299 291 188 215 220 274 252 245 255 253 250 254 259 265 268 271 274 266 252 242 234 230 227 225 222 218 215 214 214 215 213 209 205 203 204 205 207 209 206 204 208 210 209 209 210 210 209 207 206 203 198 189 182 180 181 178 177 179 179 179 178 177 174 169
196 266 237 213 160 166 183 195 138 108 142 220 128 127 196 187 168 197 203 184 189 305 295 229 222 221 207 269 269 267 284 262 247 252 257 261 262 265 267 261 251 242 233 229 228 225 222 218 215 215 215 216 214 210 207 204 204 205 206 208 207 207 210 210 209 210 209 208 207 205 202 198 193 188 184 183 182 181 180 182 183 182 180 178 176 172
175 275 279 339 47 173 184 174 136 136 186 169 136 184 213 173 147 184 265 58 83 264 271 202 243 284 312 279 268 244 259 260 253 256 252 252 257 261 262 258 251 243 234 231 231 227 223 218 215 215 215 216 215 212 209 206 206 208 207 207 207 209 211 210 210 210 209 208 205 202 198 194 191 189 188 186 185 183 183 184 186 185 182 179 178 176
171 259 286 121 187 260 63 112 87 48 118 128 181 200 165 73 85 122 247 351 47 254 270 218 246 279 280 273 312 130 227 250 259 256 250 253 258 259 258 255 249 245 238 234 233 228 224 219 216 215 216 217 218 216 212 208 208 209 208 208 207 208 210 210 210 210 209 207 203 198 194 192 192 192 190 189 188 188 187 188 188 187 185 182 180 179
161 235 291 110 186 287 31 115 97 15 63 122 175 176 135 139 217 122 173 225 183 251 280 285 270 264 210 225 270 178 210 231 241 241 249 260 255 252 255 254 247 242 236 231 229 227 223 220 217 216 216 217 217 218 216 211 209 207 208 210 210 211 212 210 209 209 209 207 202 196 193 192 193 193 192 192 192 193 193 192 190 189 188 186 183 181
140 199 270 320 222 316 35 160 191 206 35 55 101 156 136 146 180 168 161 175 171 222 275 312 310 268 216 200 202 210 212 213 225 234 240 247 248 250 254 254 248 242 236 233 230 228 224 220 218 217 217 217 217 218 217 212 208 206 208 210 208 209 213 212 211 210 210 206 199 195 194 194 195 195 194 195 196 197 196 195 194 191 191 189 185 183
132 205 241 314 338 165 188 208 191 179 167 145 156 177 191 119 114 161 183 138 137 162 215 269 284 268 236 185 192 207 215 211 210 216 228 240 247 255 262 261 257 249 242 237 233 230 226 222 219 217 217 218 217 218 218 214 209 207 208 209 208 209 211 211 212 211 210 206 199 196 196 196 196 196 197 197 199 200 199 197 196 195 193 191 188 187
178 194 184 177 218 203 226 240 203 191 185 180 189 192 187 173 141 169 232 203 137 173 185 186 267 269 239 182 200 200 206 218 209 205 227 244 249 264 279 277 270 260 248 241 236 233 228 223 220 217 216 217 217 218 217 215 211 209 209 209 210 212 211 211 212 211 211 207 200 197 198 198 198 198 199 199 200 201 200 199 197 196 195 193 192 192
154 126 157 197 212 212 241 267 221 207 189 160 200 199 179 176 171 180 214 210 162 214 186 129 265 273 252 168 213 226 213 224 217 210 232 250 255 269 283 286 282 269 254 244 238 234 231 226 222 219 217 217 218 218 217 215 212 210 210 211 212 213 212 212 214 213 211 209 203 199 200 201 201 201 201 202 202 202 201 200 199 197 196 196 195 192
135 133 190 229 317 308 307 326 336 174 138 162 232 181 169 196 196 184 199 183 166 209 195 145 249 264 294 18 252 273 272 250 234 224 238 256 262 271 282 288 286 272 257 244 237 234 231 227 223 220 219 219 219 218 217 216 214 211 212 212 213 213 213 213 215 214 213 211 206 202 201 202 203 203 203 204 204 203 202 201 200 198 198 198 197 195
169 180 181 183 304 330 335 326 287 251 181 200 221 191 188 198 190 171 150 141 204 218 189 184 239 242 290 325 267 291 314 284 255 242 244 259 268 277 285 291 287 275 261 244 234 232 230 227 224 222 221 220 220 219 218 216 215 213 213 215 214 214 214 214 215 215 214 213 209 205 203 204 205 205 206 206 205 204 204 202 201 201 201 200 200 200
171 184 172 186 213 219 219 222 218 197 168 192 208 195 197 194 187 194 202 190 231 223 176 198 238 239 319 322 263 295 326 299 272 255 244 250 266 281 286 294 291 279 265 249 238 234 233 231 228 225 223 222 221 220 219 217 216 215 216 218 218 216 216 215 216 217 216 214 211 207 204 205 206 207 208 207 206 205 205 204 203 204 204 203 203 204
153 199 189 199 214 218 220 217 157 130 145 200 209 194 197 200 193 196 208 213 220 193 186 222 235 251 266 237 219 265 271 267 275 266 254 254 268 284 288 292 289 280 270 256 244 238 236 234 232 228 225 224 223 222 221 219 218 216 217 219 219 219 218 217 218 218 216 214 212 208 206 206 208 209 209 209 207 207 206 205 206 207 207 205 206 207
112 204 202 207 220 229 229 199 157 151 168 198 202 193 202 203 192 197 214 217 181 135 238 235 214 243 256 236 211 243 245 255 270 260 259 266 275 281 281 279 277 274 269 259 248 242 239 237 235 231 227 225 224 223 222 221 220 218 218 219 220 221 220 219 219 219 217 215 213 210 208 209 209 210 211 210 209 208 208 207 208 209 209 208 209 210
140 206 208 206 222 237 234 177 166 179 180 194 197 196 202 198 193 205 216 215 180 186 242 240 170 218 253 250 223 224 212 228 250 255 260 267 269 269 268 265 267 268 263 261 258 250 243 241 240 234 229 227 225 224 222 221 220 219 219 220 220 221 221 220 220 220 218 216 214 212 210 211 211 211 212 212 210 209 209 209 210 210 211 212 212 211
181 209 204 188 216 242 238 188 169 191 188 201 206 202 203 201 201 208 215 217 207 216 245 253 224 241 258 261 236 223 218 233 249 259 261 259 257 256 256 256 260 262 262 267 267 258 248 247 245 238 233 229 227 225 223 221 221 220 219 219 219 221 222 221 221 220 219 217 216 213 212 213 213 213 212 213 213 212 211 211 212 213 213 214 213 213
188 202 157 148 204 248 239 191 175 191 190 210 220 216 215 212 209 212 217 218 216 231 248 257 266 264 261 247 250 248 235 238 254 262 258 256 253 250 248 251 255 260 265 271 269 260 252 249 246 240 236 233 231 229 226 224 223 221 220 220 220 221 221 222 222 221 220 218 217 215 214 215 215 215 215 215 215 215 214 213 214 215 215 215 214 214
174 199 75 123 207 244 227 181 189 193 183 224 238 229 222 216 209 212 216 215 210 220 238 246 254 258 248 176 260 258 234 229 243 248 252 256 254 248 246 250 256 262 268 270 267 261 257 253 249 245 241 238 236 233 229 226 223 221 221 222 221 221 222 222 223 222 221 219 218 217 217 216 217 217 217 217 217 217 215 215 216 216 216 217 216 216
161 172 165 156 208 243 220 172 179 170 170 237 241 231 223 210 196 208 217 220 214 210 221 229 235 248 252 245 259 258 218 218 235 242 247 253 254 252 252 254 259 265 268 268 266 263 261 259 256 252 249 245 242 238 233 228 225 224 224 223 223 222 222 223 223 223 222 221 220 220 219 218 219 219 219 219 219 218 218 217 218 219 219 219 219 218
166 176 194 179 197 239 198 143 146 181 212 232 238 228 218 201 197 210 217 220 216 209 221 234 239 251 257 251 248 250 243 242 248 251 253 256 256 257 257 259 262 266 266 265 266 266 263 259 257 254 250 249 246 241 235 230 229 228 226 225 224 224 224 224 224 224 223 223 222 222 221 221 220 220 220 221 220 220 220 220 221 222 222 221 221 220
175 184 189 178 179 204 151 130 165 211 220 243 313 318 213 201 200 211 222 225 219 215 227 240 247 251 251 248 247 251 256 258 260 260 261 261 259 258 259 261 263 264 264 264 267 268 261 253 252 252 249 248 246 240 235 231 230 228 226 226 225 225 225 225 225 224 224 224 224 223 223 223 222 222 222 223 223 223 223 223 224 224 223 223 224 222
179 191 185 176 181 160 139 175 209 233 279 287 290 299 201 169 182 202 228 238 228 220 224 232 241 247 250 253 253 253 259 267 272 269 264 261 262 260 258 259 261 263 264 266 269 269 264 257 254 254 251 248 244 239 235 233 232 230 229 228 228 227 227 227 226 226 225 225 225 225 225 225 224 223 224 225 225 225 226 226 226 225 224 226 224 222
180 187 192 199 197 184 189 210 235 331 313 270 253 217 165 148 159 178 215 243 231 220 220 224 237 246 249 252 254 255 263 280 286 275 266 260 258 259 258 259 260 261 262 262 261 257 253 249 250 248 247 245 242 240 237 234 232 231 230 230 230 230 230 229 229 229 229 229 229 229 228 227 226 226 226 226 227 227 228 229 228 226 227 227 224 225
196 190 190 202 206 190 205 232 243 259 257 250 234 191 180 178 174 168 193 249 242 215 209 211 229 239 239 248 253 251 266 293 282 273 269 261 253 253 257 258 255 249 240 226 214 212 211 220 231 235 236 237 238 239 236 234 233 232 232 233 233 234 233 233 233 234 234 234 233 232 231 230 229 229 228 229 230 231 232 231 229 229 229 227 227 234
215 203 192 202 206 189 203 229 220 217 247 250 222 176 174 172 155 129 168 256 255 193 193 198 217 233 235 240 235 193 153 254 259 266 272 268 253 248 247 240 223 200 189 180 172 176 180 188 210 222 227 229 231 233 231 231 231 230 232 234 235 236 237 238 239 240 239 238 237 236 235 235 234 233 233 234 234 234 233 232 232 232 231 230 234 243
204 191 193 205 208 205 209 222 227 233 247 236 207 176 159 150 135 116 195 251 234 177 186 191 207 228 233 225 197 161 182 224 245 276 283 261 235 223 208 189 173 166 165 162 160 166 170 175 190 202 210 214 218 224 227 227 227 228 232 234 236 238 242 245 246 245 242 241 241 241 241 240 240 239 239 239 238 236 235 234 235 235 235 236 241 245
194 187 195 207 212 212 215 225 244 252 239 222 182 162 150 135 131 167 222 226 182 174 186 195 209 225 227 204 183 195 223 231 243 273 258 203 188 180 170 166 166 166 169 172 174 176 176 175 177 178 187 198 205 212 217 219 221 224 228 232 236 239 243 245 246 245 244 244 246 247 246 245 244 244 244 243 241 238 237 237 238 238 239 240 241 243
186 181 193 207 210 212 219 228 240 252 233 167 144 153 152 139 178 217 208 153 164 178 190 200 212 225 228 214 208 218 232 237 238 229 196 178 173 171 172 177 179 181 184 183 180 178 179 183 184 186 191 195 198 204 208 211 215 218 221 226 230 233 237 241 244 246 248 249 249 249 248 247 246 246 245 245 243 242 241 241 241 241 241 240 240 241
182 171 189 207 199 195 218 215 218 253 201 140 130 129 179 193 217 194 164 141 170 186 191 196 205 215 217 216 216 219 224 218 201 192 182 176 175 176 180 185 187 187 186 183 185 188 189 194 198 198 200 200 199 202 203 206 211 213 216 222 227 231 236 240 243 245 246 247 248 248 248 248 248 248 248 248 247 247 246 245 244 243 242 241 241 241
181 176 189 212 197 183 210 213 208 250 158 153 150 172 211 205 209 178 173 173 177 182 185 189 197 203 206 208 203 195 192 187 184 182 178 177 177 177 180 182 180 181 181 182 187 188 186 189 192 192 192 191 192 196 197 200 205 210 214 221 225 229 234 236 238 240 242 244 246 247 248 249 250 251 252 252 251 250 249 248 247 246 246 245 244 243
203 193 172 185 199 191 208 219 203 139 170 176 181 205 207 204 211 197 183 180 173 176 180 183 191 194 192 193 188 179 176 175 174 173 172 174 172 166 168 170 167 170 174 173 175 177 175 175 178 182 184 185 187 192 195 198 203 208 212 214 216 220 226 230 234 238 239 242 244 246 248 250 250 251 252 252 252 251 250 250 249 249 249 249 248 247
229 207 146 140 212 223 237 221 195 179 190 193 200 221 211 204 204 190 179 178 174 175 175 174 181 186 182 183 181 177 177 176 172 170 170 170 166 162 164 167 165 165 168 169 172 175 173 170 173 179 184 187 188 190 191 191 188 179 175 183 194 204 213 221 227 231 234 238 240 242 244 245 246 247 248 248 249 250 250 251 251 251 251 252 251 251
272 197 172 150 208 212 228 219 194 205 211 203 206 217 208 198 197 190 180 179 180 179 173 166 167 173 183 189 190 186 182 176 171 171 168 165 168 171 171 173 172 167 168 170 172 174 174 175 177 177 176 180 181 177 172 167 159 152 157 167 176 186 196 206 214 221 226 230 232 235 238 240 242 245 247 248 248 249 250 250 250 251 251 251 251 252
213 174 172 229 222 204 235 254 225 234 231 210 208 213 203 192 193 189 181 178 177 175 172 168 165 167 171 177 181 183 180 175 173 175 173 172 178 183 182 184 185 182 180 178 175 173 174 175 173 168 162 159 157 152 150 152 154 158 165 172 178 187 197 206 213 219 225 228 232 235 238 241 244 246 248 249 250 251 252 252 252 252 253 253 254 254
147 155 179 211 215 243 274 260 219 1 292 227 213 210 202 195 193 188 182 181 178 176 176 171 165 165 165 162 166 173 177 176 176 179 181 181 184 187 190 192 194 193 190 184 176 171 169 166 160 152 146 144 144 144 144 149 155 162 167 175 187 196 206 214 218 223 228 231 234 238 240 243 246 248 249 252 253 255 256 257 258 259 260 260 260 259
145 177 193 168 174 234 248 211 170 165 263 228 212 207 200 196 197 193 186 184 181 179 180 177 170 167 167 168 170 174 180 182 180 178 180 181 182 186 191 195 197 194 188 180 173 167 160 154 149 145 143 144 145 144 146 149 155 164 173 186 200 209 218 224 228 231 234 236 240 243 245 247 250 251 253 255 257 259 261 262 263 264 264 264 264 264
190 189 184 177 196 228 229 197 186 193 224 226 211 206 199 193 195 194 191 189 186 185 188 189 186 180 173 170 173 178 185 187 182 176 176 178 180 185 192 197 198 191 182 174 169 162 155 151 150 150 149 148 147 147 150 151 154 166 183 197 210 220 227 233 237 240 243 247 249 250 251 252 253 255 256 258 259 260 261 263 264 265 266 267 268 268